This demonstration page uses our WeatherBlox Daily Observations layout. Learn more.

Left ArrowRight Arrow

Hourly Observations for August 17, 2020

Temp ( °F °C ) Dew Point ( °F °C ) Humidity (%) Winds ( mph kmh ) Pressure ( in mb ) Visibility ( mi km ) Precip ( " mm )
12:53 am 00:53 Clear 61 16.1 58 14.4 90 90 N N/A 30 1016 10 16.0934 N/A
1:53 am 01:53 Clear 60 15.6 58 14.4 93 93 N N/A 30.01 1016 10 16.0934 N/A
2:53 am 02:53 Clear 59 15 57 13.9 93 93 N N/A 30.01 1016 10 16.0934 N/A
3:53 am 03:53 Clear 59 15 57 13.9 93 93 N N/A 30.01 1016 10 16.0934 N/A
4:53 am 04:53 Clear 58 14.4 57 13.9 97 97 N N/A 30.02 1017 10 16.0934 N/A
5:53 am 05:53 Clear 59 15 58 14.4 96 96 N N/A 30.02 1017 10 16.0934 N/A
6:53 am 06:53 Clear 60 15.6 58 14.4 93 93 N N/A 30.03 1017 10 16.0934 N/A
7:53 am 07:53 Sunny 63 17.2 60 15.6 90 90 N N/A 30.03 1017 10 16.0934 N/A
8:53 am 08:53 Sunny 69 20.6 63 17.2 81 81 N N/A 30.03 1017 10 16.0934 N/A
9:53 am 09:53 Sunny 72 22.2 63 17.2 73 73 N N/A 30.03 1017 10 16.0934 N/A
10:53 am 10:53 Sunny 77 25 65 18.3 66 66 W 5 7 30.04 1017 10 16.0934 N/A
11:53 am 11:53 Sunny 80 26.7 67 19.4 64 64 VRB 6 9 30.02 1017 10 16.0934 N/A
12:53 pm 12:53 Mostly Sunny 83 28.3 67 19.4 59 59 SW 6 9 30.01 1016 10 16.0934 N/A
1:53 pm 13:53 Sunny 86 30 61 16.1 43 43 WNW 15 24 30.01 1016 10 16.0934 N/A
2:53 pm 14:53 Mostly Sunny 86 30 62 16.7 45 45 W 7 11 29.99 1016 10 16.0934 N/A
3:53 pm 15:53 Mostly Cloudy 82 27.8 60 15.6 47 47 W 9 15 29.99 1016 10 16.0934 N/A
4:53 pm 16:53 Sunny 81 27.2 60 15.6 49 49 WNW 9 15 29.97 1015 10 16.0934 N/A
5:53 pm 17:53 Sunny 83 28.3 62 16.7 49 49 NNW 7 11 29.97 1015 10 16.0934 N/A
6:53 pm 18:53 Sunny 80 26.7 64 17.8 58 58 N 6 9 29.97 1015 10 16.0934 N/A
7:53 pm 19:53 Sunny 77 25 62 16.7 60 60 N 5 7 29.97 1015 10 16.0934 N/A
8:53 pm 20:53 Clear 68 20 64 17.8 87 87 N N/A 29.97 1015 10 16.0934 N/A
9:53 pm 21:53 Mostly Cloudy 67 19.4 63 17.2 87 87 N N/A 29.99 1016 10 16.0934 N/A
10:53 pm 22:53 Partly Cloudy 66 18.9 63 17.2 90 90 N N/A 29.99 1016 10 16.0934 N/A
11:53 pm 23:53 Mostly Cloudy 65 18.3 63 17.2 93 93 N N/A 29.98 1015 10 16.0934 N/A

Powered by AerisWeather